Hourly Weather Qarshi

Today, 9 August, Sunday

Time Temperature Precipitation Wind Pressure Humidity
00:00 +26°C° 0 mm 3 mps 721 mmHg 33%
01:00 +25°C° 0 mm 3 mps 721 mmHg 35%
02:00 +24°C° 0 mm 2 mps 721 mmHg 38%
03:00 +21°C° 0 mm 2 mps 720 mmHg 42%
04:00 +21°C° 0 mm 1 mps 720 mmHg 45%
05:00 +24°C° 0 mm 1 mps 721 mmHg 40%
06:00 +24°C° 0 mm 0 mps 722 mmHg 35%
07:00 +27°C° 0 mm 0 mps 722 mmHg 30%
08:00 +31°C° 0 mm 1 mps 722 mmHg 27%
09:00 +32°C° 0 mm 2 mps 722 mmHg 24%
10:00 +35°C° 0 mm 2 mps 722 mmHg 21%
11:00 +36°C° 0 mm 3 mps 722 mmHg 20%
12:00 +37°C° 0 mm 3 mps 722 mmHg 18%
13:00 +38°C° 0 mm 4 mps 722 mmHg 16%
14:00 +38°C° 0 mm 4 mps 721 mmHg 16%
15:00 +38°C° 0 mm 4 mps 721 mmHg 15%
16:00 +38°C° 0 mm 4 mps 720 mmHg 15%
17:00 +36°C° 0 mm 4 mps 720 mmHg 17%
18:00 +33°C° 0 mm 4 mps 720 mmHg 20%
19:00 +30°C° 0 mm 4 mps 720 mmHg 22%
20:00 +29°C° 0 mm 3 mps 719 mmHg 24%
21:00 +28°C° 0 mm 3 mps 719 mmHg 25%
22:00 +27°C° 0 mm 3 mps 719 mmHg 26%
23:00 +26°C° 0 mm 3 mps 719 mmHg 27%

Tomorrow, 10 August, Monday

Time Temperature Precipitation Wind Pressure Humidity
00:00 +25°C° 0 mm 2 mps 719 mmHg 28%
01:00 +25°C° 0 mm 2 mps 719 mmHg 29%
02:00 +24°C° 0 mm 2 mps 719 mmHg 31%
03:00 +23°C° 0 mm 2 mps 719 mmHg 32%
04:00 +21°C° 0 mm 2 mps 719 mmHg 34%
05:00 +25°C° 0 mm 2 mps 719 mmHg 30%
06:00 +28°C° 0 mm 2 mps 720 mmHg 26%
07:00 +31°C° 0 mm 2 mps 720 mmHg 22%
08:00 +34°C° 0 mm 3 mps 721 mmHg 19%
09:00 +37°C° 0 mm 3 mps 721 mmHg 16%
10:00 +40°C° 0 mm 4 mps 721 mmHg 13%
11:00 +41°C° 0 mm 4 mps 721 mmHg 12%
12:00 +42°C° 0 mm 5 mps 721 mmHg 11%
13:00 +42°C° 0 mm 5 mps 721 mmHg 11%
14:00 +42°C° 0 mm 5 mps 721 mmHg 11%
15:00 +42°C° 0 mm 6 mps 720 mmHg 11%
16:00 +41°C° 0 mm 6 mps 720 mmHg 11%
17:00 +39°C° 0 mm 5 mps 720 mmHg 13%
18:00 +35°C° 0 mm 4 mps 720 mmHg 15%
19:00 +31°C° 0 mm 3 mps 720 mmHg 16%
20:00 +30°C° 0 mm 3 mps 720 mmHg 18%
21:00 +29°C° 0 mm 3 mps 720 mmHg 19%
22:00 +27°C° 0 mm 2 mps 720 mmHg 20%
23:00 +27°C° 0 mm 2 mps 720 mmHg 21%

Day after tomorrow, 11 August, Tuesday

Time Temperature Precipitation Wind Pressure Humidity
00:00 +26°C° 0 mm 2 mps 719 mmHg 22%
01:00 +25°C° 0 mm 2 mps 719 mmHg 23%
02:00 +24°C° 0 mm 2 mps 719 mmHg 24%
03:00 +24°C° 0 mm 2 mps 720 mmHg 25%
04:00 +23°C° 0 mm 2 mps 720 mmHg 26%
05:00 +26°C° 0 mm 1 mps 720 mmHg 23%
06:00 +28°C° 0 mm 1 mps 721 mmHg 20%
07:00 +31°C° 0 mm 1 mps 722 mmHg 17%
08:00 +34°C° 0 mm 2 mps 722 mmHg 16%
09:00 +36°C° 0 mm 3 mps 722 mmHg 14%
10:00 +40°C° 0 mm 4 mps 722 mmHg 13%
11:00 +40°C° 0 mm 5 mps 722 mmHg 13%
12:00 +41°C° 0 mm 5 mps 722 mmHg 12%
13:00 +41°C° 0 mm 5 mps 721 mmHg 12%
14:00 +41°C° 0 mm 6 mps 721 mmHg 12%
15:00 +40°C° 0 mm 7 mps 721 mmHg 12%
16:00 +40°C° 0 mm 7 mps 721 mmHg 13%
17:00 +36°C° 0 mm 7 mps 721 mmHg 13%
18:00 +34°C° 0 mm 6 mps 721 mmHg 14%
19:00 +30°C° 0 mm 5 mps 721 mmHg 15%
20:00 +29°C° 0 mm 5 mps 721 mmHg 15%
21:00 +28°C° 0 mm 5 mps 721 mmHg 15%
22:00 +27°C° 0 mm 5 mps 721 mmHg 15%
23:00 +26°C° 0 mm 5 mps 721 mmHg 16%

12 August, Wednesday

Time Temperature Precipitation Wind Pressure Humidity
00:00 +25°C° 0 mm 5 mps 721 mmHg 17%
01:00 +23°C° 0 mm 5 mps 720 mmHg 18%
02:00 +22°C° 0 mm 4 mps 720 mmHg 20%
03:00 +21°C° 0 mm 4 mps 720 mmHg 21%
04:00 +21°C° 0 mm 3 mps 720 mmHg 22%
05:00 +24°C° 0 mm 3 mps 721 mmHg 21%
06:00 +25°C° 0 mm 4 mps 721 mmHg 19%
07:00 +27°C° 0 mm 4 mps 722 mmHg 17%
08:00 +30°C° 0 mm 4 mps 722 mmHg 15%
09:00 +34°C° 0 mm 5 mps 722 mmHg 13%
10:00 +36°C° 0 mm 5 mps 722 mmHg 10%
11:00 +37°C° 0 mm 5 mps 722 mmHg 9%
12:00 +39°C° 0 mm 5 mps 722 mmHg 8%
13:00 +40°C° 0 mm 5 mps 722 mmHg 7%
14:00 +40°C° 0 mm 6 mps 722 mmHg 7%
15:00 +40°C° 0 mm 6 mps 721 mmHg 7%
16:00 +40°C° 0 mm 6 mps 721 mmHg 7%
17:00 +38°C° 0 mm 6 mps 721 mmHg 9%
18:00 +34°C° 0 mm 6 mps 721 mmHg 11%
19:00 +30°C° 0 mm 5 mps 721 mmHg 13%
20:00 +29°C° 0 mm 5 mps 721 mmHg 15%
21:00 +27°C° 0 mm 5 mps 721 mmHg 16%
22:00 +26°C° 0 mm 4 mps 721 mmHg 18%
23:00 +25°C° 0 mm 4 mps 720 mmHg 20%

13 August, Thursday

Time Temperature Precipitation Wind Pressure Humidity
00:00 +22°C° 0 mm 3 mps 720 mmHg 22%
01:00 +21°C° 0 mm 2 mps 720 mmHg 23%
02:00 +21°C° 0 mm 2 mps 720 mmHg 24%
03:00 +20°C° 0 mm 2 mps 720 mmHg 24%
04:00 +20°C° 0 mm 2 mps 720 mmHg 25%
05:00 +23°C° 0 mm 2 mps 720 mmHg 22%
06:00 +26°C° 0 mm 2 mps 721 mmHg 19%
07:00 +28°C° 0 mm 2 mps 722 mmHg 16%
08:00 +31°C° 0 mm 3 mps 722 mmHg 14%
09:00 +35°C° 0 mm 4 mps 722 mmHg 12%
10:00 +38°C° 0 mm 4 mps 722 mmHg 10%
11:00 +40°C° 0 mm 5 mps 722 mmHg 9%
12:00 +41°C° 0 mm 5 mps 721 mmHg 9%
13:00 +42°C° 0 mm 6 mps 721 mmHg 8%
14:00 +42°C° 0 mm 6 mps 721 mmHg 8%
15:00 +41°C° 0 mm 6 mps 720 mmHg 9%
16:00 +41°C° 0 mm 7 mps 720 mmHg 9%
17:00 +39°C° 0 mm 6 mps 720 mmHg 12%
18:00 +35°C° 0 mm 6 mps 720 mmHg 15%
19:00 +33°C° 0 mm 5 mps 720 mmHg 18%
20:00 +32°C° 0 mm 5 mps 720 mmHg 19%
21:00 +29°C° 0 mm 5 mps 720 mmHg 20%
22:00 +28°C° 0 mm 5 mps 720 mmHg 22%
23:00 +27°C° 0 mm 5 mps 720 mmHg 22%

14 August, Friday

Time Temperature Precipitation Wind Pressure Humidity
00:00 +26°C° 0 mm 4 mps 720 mmHg 23%
01:00 +25°C° 0 mm 4 mps 719 mmHg 23%
02:00 +23°C° 0 mm 4 mps 719 mmHg 24%
03:00 +22°C° 0 mm 3 mps 719 mmHg 26%
04:00 +21°C° 0 mm 3 mps 719 mmHg 27%
05:00 +24°C° 0 mm 3 mps 720 mmHg 25%
06:00 +26°C° 0 mm 3 mps 720 mmHg 22%
07:00 +28°C° 0 mm 3 mps 720 mmHg 20%
08:00 +31°C° 0 mm 3 mps 720 mmHg 17%
09:00 +35°C° 0 mm 4 mps 721 mmHg 15%
10:00 +38°C° 0 mm 4 mps 721 mmHg 12%
11:00 +40°C° 0 mm 4 mps 720 mmHg 11%
12:00 +41°C° 0 mm 4 mps 720 mmHg 10%
13:00 +42°C° 0 mm 5 mps 720 mmHg 9%
14:00 +42°C° 0 mm 5 mps 720 mmHg 9%
15:00 +42°C° 0 mm 5 mps 719 mmHg 8%
16:00 +42°C° 0 mm 5 mps 719 mmHg 8%
17:00 +40°C° 0 mm 5 mps 719 mmHg 10%
18:00 +36°C° 0 mm 4 mps 719 mmHg 11%
19:00 +33°C° 0 mm 4 mps 718 mmHg 13%
20:00 +32°C° 0 mm 4 mps 718 mmHg 14%
21:00 +29°C° 0 mm 4 mps 718 mmHg 16%
22:00 +28°C° 0 mm 4 mps 719 mmHg 17%
23:00 +27°C° 0 mm 3 mps 718 mmHg 19%
Show more